This demonstration page uses our WeatherBlox Daily Observations layout. Learn more.

Hourly Observations for November 15, 2015

Temp ( °F °C ) Dew Point ( °F °C ) Humidity (%) Winds ( mph kmh ) Pressure ( in mb ) Visibility ( mi km ) Precip ( " mm )
12:15 am 00:15 Clear 45 7 34 1 66 66 S 14 22 30.06 1018 10 16.09344 0 0
12:35 am 00:35 Clear 45 7 34 1 66 66 SSW 15 24 30.06 1018 10 16.09344 0 0
12:55 am 00:55 Clear 45 7 34 1 66 66 SSW 13 20 30.06 1018 10 16.09344 0 0
1:15 am 01:15 Clear 45 7 34 1 66 66 SSW 12 19 30.06 1018 10 16.09344 0 0
1:35 am 01:35 Clear 43 6 34 1 71 71 S 12 19 30.09 1019 10 16.09344 0 0
1:55 am 01:55 Clear 43 6 32 0 66 66 SSW 9 15 30.03 1017 10 16.09344 0 0
2:15 am 02:15 Clear 41 5 32 0 70 70 S 9 15 30.06 1018 10 16.09344 0 0
2:35 am 02:35 Clear 41 5 32 0 70 70 S 8 13 30.06 1018 10 16.09344 0 0
2:55 am 02:55 Clear 41 5 32 0 70 70 S 5 7 30.06 1018 10 16.09344 0 0
3:15 am 03:15 Clear 39 4 32 0 75 75 S 6 9 30.06 1018 10 16.09344 0 0
3:35 am 03:35 Clear 37 3 32 0 81 81 S 7 11 30.06 1018 10 16.09344 0 0
3:55 am 03:55 Clear 37 3 32 0 81 81 S 6 9 30.06 1018 10 16.09344 0 0
4:15 am 04:15 Clear 37 3 32 0 81 81 S 5 7 30.06 1018 10 16.09344 0 0
4:35 am 04:35 Clear 39 4 32 0 75 75 S 6 9 30.06 1018 10 16.09344 0 0
4:55 am 04:55 Clear 37 3 30 -1 75 75 S 5 7 30.06 1018 10 16.09344 0 0
5:15 am 05:15 Clear 36 2 30 -1 81 81 S 6 9 30.09 1019 10 16.09344 0 0
5:35 am 05:35 Clear 36 2 32 0 87 87 S 6 9 30.09 1019 10 16.09344 0 0
5:55 am 05:55 Clear 36 2 30 -1 81 81 S 6 9 30.06 1018 10 16.09344 0 0
6:15 am 06:15 Clear 32 0 30 -1 93 93 Calm 30.06 1018 10 16.09344 0 0
6:35 am 06:35 Clear 32 0 28 -2 87 87 SSE 5 7 30.06 1018 10 16.09344 0 0
6:55 am 06:55 Clear 32 0 30 -1 93 93 SSE 5 7 30.06 1018 10 16.09344 0 0
7:15 am 07:15 Clear 32 0 30 -1 93 93 SSE 5 7 30.06 1018 10 16.09344 0 0
7:35 am 07:35 Sunny 34 1 30 -1 87 87 S 7 11 30.06 1018 10 16.09344 0 0
7:55 am 07:55 Sunny 34 1 32 0 93 93 SSE 7 11 30.06 1018 10 16.09344 0 0
8:15 am 08:15 Sunny 36 2 32 0 87 87 SSE 8 13 30.06 1018 10 16.09344 0 0
8:35 am 08:35 Sunny 37 3 34 1 87 87 S 9 15 30.03 1017 10 16.09344 0 0
8:55 am 08:55 Sunny 41 5 36 2 81 81 S 13 20 30.03 1017 10 16.09344 0 0
9:15 am 09:15 Sunny 43 6 36 2 76 76 S 13 20 30 1016 10 16.09344 0 0
9:35 am 09:35 Sunny 45 7 37 3 76 76 S 12 19 29.97 1015 10 16.09344 0 0
9:55 am 09:55 Sunny 45 7 37 3 76 76 S 13 20 29.97 1015 10 16.09344 0 0
10:15 am 10:15 Partly Cloudy 46 8 39 4 76 76 S 16 26 29.97 1015 10 16.09344 0 0
10:35 am 10:35 Mostly Cloudy 46 8 39 4 76 76 S 15 24 29.97 1015 10 16.09344 0 0
10:55 am 10:55 Cloudy 45 7 39 4 81 81 S 16 26 29.97 1015 10 16.09344 0 0
11:15 am 11:15 Cloudy 45 7 39 4 81 81 S 16 26 29.97 1015 10 16.09344 0 0
11:35 am 11:35 Cloudy 45 7 41 5 87 87 S 15 24 29.97 1015 10 16.09344 0 0
11:55 am 11:55 Cloudy 45 7 41 5 87 87 S 15 24 29.94 1014 10 16.09344 0 0
12:15 pm 12:15 Cloudy 46 8 41 5 82 82 S 15 24 29.94 1014 10 16.09344 0 0
12:35 pm 12:35 Cloudy 46 8 41 5 82 82 S 15 24 29.94 1014 10 16.09344 0 0
12:55 pm 12:55 Cloudy 48 9 43 6 82 82 S 15 24 29.88 1012 10 16.09344 0 0
1:15 pm 13:15 Cloudy 48 9 43 6 82 82 S 14 22 29.88 1012 10 16.09344 0 0
1:35 pm 13:35 Cloudy 50 10 43 6 76 76 S 16 26 29.85 1011 10 16.09344 0 0
1:55 pm 13:55 Cloudy 52 11 45 7 77 77 S 20 31 29.8 1009 10 16.09344 0 0
2:15 pm 14:15 Cloudy 52 11 45 7 77 77 S 16 26 29.8 1009 10 16.09344 0 0
2:35 pm 14:35 Mostly Cloudy 54 12 45 7 72 72 S 20 31 29.8 1009 10 16.09344 0 0
2:55 pm 14:55 Mostly Cloudy 54 12 45 7 72 72 S 20 31 29.8 1009 10 16.09344 0 0
3:15 pm 15:15 Partly Cloudy 54 12 45 7 72 72 S 18 30 29.77 1008 10 16.09344 0 0
3:35 pm 15:35 Mostly Cloudy 54 12 45 7 72 72 S 20 31 29.77 1008 10 16.09344 0 0
3:55 pm 15:55 Cloudy 54 12 45 7 72 72 SSE 21 33 29.77 1008 10 16.09344 0 0
4:15 pm 16:15 Cloudy 54 12 45 7 72 72 S 14 22 29.77 1008 10 16.09344 0 0
4:35 pm 16:35 Cloudy 54 12 45 7 72 72 SSE 17 28 29.77 1008 10 16.09344 0 0
4:55 pm 16:55 Cloudy 52 11 45 7 77 77 S 17 28 29.77 1008 10 16.09344 0 0
5:15 pm 17:15 Cloudy 52 11 45 7 77 77 SSE 15 24 29.77 1008 10 16.09344 0 0
5:35 pm 17:35 Cloudy 52 11 46 8 82 82 SSE 15 24 29.77 1008 10 16.09344 0 0
5:55 pm 17:55 Mostly Cloudy 52 11 46 8 82 82 S 15 24 29.77 1008 10 16.09344 0 0
6:15 pm 18:15 Partly Cloudy 52 11 45 7 77 77 SSE 13 20 29.77 1008 10 16.09344 0 0
6:35 pm 18:35 Clear 52 11 46 8 82 82 SSE 15 24 29.77 1008 10 16.09344 0 0
6:55 pm 18:55 Partly Cloudy 52 11 46 8 82 82 SSE 13 20 29.77 1008 10 16.09344 0 0
7:15 pm 19:15 Partly Cloudy 50 10 46 8 88 88 SSE 13 20 29.8 1009 10 16.09344 0 0
7:35 pm 19:35 Mostly Cloudy 52 11 46 8 82 82 SSE 13 20 29.77 1008 10 16.09344 0 0
7:55 pm 19:55 Cloudy 52 11 48 9 88 88 SSE 13 20 29.74 1007 10 16.09344 0 0
8:15 pm 20:15 Cloudy 52 11 48 9 88 88 SSE 15 24 29.74 1007 10 16.09344 0 0
8:35 pm 20:35 Cloudy 54 12 48 9 82 82 S 15 24 29.74 1007 10 16.09344 0 0
8:55 pm 20:55 Cloudy 54 12 48 9 82 82 S 18 30 29.74 1007 10 16.09344 0 0
9:15 pm 21:15 Cloudy 54 12 48 9 82 82 SSE 16 26 29.74 1007 10 16.09344 0 0
9:35 pm 21:35 Cloudy 54 12 48 9 82 82 SSE 16 26 29.71 1006 10 16.09344 0 0
9:55 pm 21:55 Cloudy 54 12 48 9 82 82 S 17 28 29.71 1006 10 16.09344 0 0
10:15 pm 22:15 Cloudy 54 12 48 9 82 82 SSE 17 28 29.71 1006 10 16.09344 0 0
10:35 pm 22:35 Cloudy 54 12 50 10 88 88 SSE 17 28 29.71 1006 10 16.09344 0 0
10:55 pm 22:55 Cloudy 54 12 50 10 88 88 SSE 12 19 29.68 1005 10 16.09344 0 0
11:15 pm 23:15 Cloudy 54 12 50 10 88 88 SSE 17 28 29.68 1005 10 16.09344 0 0
11:35 pm 23:35 Cloudy 54 12 50 10 88 88 S 16 26 29.68 1005 10 16.09344 0 0
11:55 pm 23:55 Cloudy 54 12 50 10 88 88 S 20 31 29.68 1005 10 16.09344 0 0

Powered by AerisWeather